User: anonymous   Login
Location: Corcelles
(46.1547°N, 4.7234°E)
Time: 18:29:54
(UTC+00:00)
Language:

Resurs 1-4 Rocket - Orbit

View from above orbital plane
View from above orbital plane
View from above satellite
View from above satellite

Ground track
Ground track

The orbit data is extracted from the following two-line orbital elements,

1 25400U 98043G   20262.78960107 -.00000020 +00000-0 +97075-5 0  9991
2 25400 098.6105 197.0120 0010984 065.6478 294.5847 14.25460604154315
Epoch (UTC): 18 September 2020 18:57:01
Eccentricity: 0.0010984
inclination: 98.6105°
perigee height: 799 km
apogee height: 815 km
right ascension of ascending node: 197.0120°
argument of perigee: 65.6478°
revolutions per day: 14.25460604
mean anomaly at epoch: 294.5847°
orbit number at epoch: 15431

The dashed part of the orbit path shows where the satellite is in the earth's shadow,  

DLR